• In Deutschland
  • Länderverzeichnis
  • Für 7 Tage
  • Wassertemperatur
  • Satellitenkarten
  • Wetterkarte
  • Widgets
  • user-avatar
    Anmelden

    Stündliche Wetter Wertheim

    Heute, 19 Oktober, Donnerstag

    Zeit Temperatur Niederschläge Wind Luftdruck Luftfeuchtigkeit
    00:00 +12°C° 0 mm 1 m/S 738 mmHg 75%
    01:00 +12°C° 0 mm 1 m/S 738 mmHg 75%
    02:00 +11°C° 0 mm 1 m/S 738 mmHg 76%
    03:00 +11°C° 0 mm 1 m/S 737 mmHg 77%
    04:00 +11°C° 0 mm 1 m/S 737 mmHg 78%
    05:00 +11°C° 0 mm 1 m/S 737 mmHg 77%
    06:00 +11°C° 0 mm 1 m/S 737 mmHg 77%
    07:00 +11°C° 0 mm 1 m/S 737 mmHg 77%
    08:00 +13°C° 0 mm 1 m/S 737 mmHg 71%
    09:00 +15°C° 0 mm 1 m/S 738 mmHg 65%
    10:00 +18°C° 0 mm 1 m/S 738 mmHg 59%
    11:00 +19°C° 0 mm 1 m/S 738 mmHg 56%
    12:00 +19°C° 0 mm 2 m/S 738 mmHg 53%
    13:00 +21°C° 0 mm 2 m/S 738 mmHg 50%
    14:00 +21°C° 0 mm 2 m/S 737 mmHg 54%
    15:00 +21°C° 0 mm 1 m/S 737 mmHg 57%
    16:00 +21°C° 0 mm 1 m/S 737 mmHg 61%
    17:00 +20°C° 0 mm 1 m/S 737 mmHg 66%
    18:00 +18°C° 0 mm 1 m/S 737 mmHg 72%
    19:00 +15°C° 0 mm 2 m/S 737 mmHg 77%
    20:00 +15°C° 0 mm 2 m/S 737 mmHg 78%
    21:00 +14°C° 0 mm 1 m/S 737 mmHg 79%
    22:00 +14°C° 0 mm 1 m/S 737 mmHg 80%
    23:00 +13°C° 0 mm 1 m/S 737 mmHg 81%

    Morgen, 20 Oktober, Freitag

    Zeit Temperatur Niederschläge Wind Luftdruck Luftfeuchtigkeit
    00:00 +13°C° 0 mm 1 m/S 737 mmHg 82%
    01:00 +12°C° 0 mm 1 m/S 737 mmHg 83%
    02:00 +12°C° 0 mm 1 m/S 737 mmHg 83%
    03:00 +11°C° 0 mm 1 m/S 737 mmHg 84%
    04:00 +11°C° 0 mm 1 m/S 737 mmHg 84%
    05:00 +11°C° 0 mm 1 m/S 738 mmHg 85%
    06:00 +11°C° 0 mm 1 m/S 738 mmHg 85%
    07:00 +10°C° 0 mm 1 m/S 738 mmHg 86%
    08:00 +12°C° 0 mm 1 m/S 738 mmHg 79%
    09:00 +14°C° 0 mm 1 m/S 738 mmHg 73%
    10:00 +16°C° 0 mm 1 m/S 738 mmHg 66%
    11:00 +17°C° 0 mm 2 m/S 739 mmHg 63%
    12:00 +18°C° 0 mm 2 m/S 739 mmHg 59%
    13:00 +19°C° 0 mm 3 m/S 739 mmHg 56%
    14:00 +18°C° 0,2 mm 2 m/S 739 mmHg 63%
    15:00 +17°C° 0,2 mm 2 m/S 739 mmHg 69%
    16:00 +16°C° 0,2 mm 2 m/S 739 mmHg 76%
    17:00 +15°C° 0 mm 2 m/S 739 mmHg 79%
    18:00 +15°C° 0 mm 2 m/S 739 mmHg 82%
    19:00 +14°C° 0 mm 1 m/S 739 mmHg 85%
    20:00 +14°C° 0,1 mm 2 m/S 740 mmHg 87%
    21:00 +13°C° 0,1 mm 2 m/S 740 mmHg 88%
    22:00 +13°C° 0,1 mm 2 m/S 740 mmHg 89%
    23:00 +13°C° 0 mm 2 m/S 740 mmHg 90%

    übermorgen, 21 Oktober, Samstag

    Zeit Temperatur Niederschläge Wind Luftdruck Luftfeuchtigkeit
    00:00 +12°C° 0 mm 2 m/S 740 mmHg 91%
    01:00 +12°C° 0 mm 2 m/S 740 mmHg 92%
    02:00 +12°C° 0 mm 2 m/S 740 mmHg 91%
    03:00 +12°C° 0 mm 2 m/S 739 mmHg 90%
    04:00 +12°C° 0 mm 2 m/S 739 mmHg 90%
    05:00 +13°C° 0 mm 2 m/S 739 mmHg 88%
    06:00 +13°C° 0 mm 2 m/S 739 mmHg 87%
    07:00 +13°C° 0 mm 2 m/S 739 mmHg 85%
    08:00 +13°C° 0 mm 3 m/S 739 mmHg 81%
    09:00 +16°C° 0 mm 3 m/S 739 mmHg 77%
    10:00 +17°C° 0 mm 4 m/S 739 mmHg 73%
    11:00 +18°C° 0 mm 4 m/S 739 mmHg 70%
    12:00 +18°C° 0 mm 4 m/S 738 mmHg 67%
    13:00 +19°C° 0 mm 5 m/S 738 mmHg 63%
    14:00 +18°C° 0,7 mm 4 m/S 738 mmHg 71%
    15:00 +15°C° 0,7 mm 4 m/S 738 mmHg 79%
    16:00 +14°C° 0,7 mm 4 m/S 738 mmHg 87%
    17:00 +14°C° 0,6 mm 4 m/S 738 mmHg 88%
    18:00 +13°C° 0,6 mm 4 m/S 739 mmHg 89%
    19:00 +13°C° 0,6 mm 4 m/S 739 mmHg 89%
    20:00 +12°C° 0,2 mm 4 m/S 739 mmHg 89%
    21:00 +12°C° 0,2 mm 4 m/S 740 mmHg 89%
    22:00 +11°C° 0,2 mm 4 m/S 740 mmHg 89%
    23:00 +11°C° 0,1 mm 4 m/S 740 mmHg 89%

    22 Oktober, Sonntag

    Zeit Temperatur Niederschläge Wind Luftdruck Luftfeuchtigkeit
    00:00 +10°C° 0,1 mm 4 m/S 740 mmHg 89%
    01:00 +10°C° 0,1 mm 4 m/S 740 mmHg 88%
    02:00 +8°C° 0 mm 4 m/S 740 mmHg 89%
    03:00 +8°C° 0 mm 4 m/S 740 mmHg 89%
    04:00 +8°C° 0 mm 4 m/S 740 mmHg 89%
    05:00 +7°C° 0 mm 4 m/S 740 mmHg 89%
    06:00 +7°C° 0 mm 4 m/S 740 mmHg 89%
    07:00 +6°C° 0 mm 4 m/S 740 mmHg 89%
    08:00 +7°C° 0 mm 4 m/S 740 mmHg 86%
    09:00 +7°C° 0 mm 5 m/S 740 mmHg 83%
    10:00 +8°C° 0 mm 5 m/S 740 mmHg 79%
    11:00 +8°C° 0,1 mm 5 m/S 740 mmHg 77%
    12:00 +8°C° 0,1 mm 5 m/S 740 mmHg 75%
    13:00 +9°C° 0,1 mm 5 m/S 740 mmHg 74%
    14:00 +10°C° 0,2 mm 4 m/S 740 mmHg 74%
    15:00 +10°C° 0,2 mm 4 m/S 740 mmHg 74%
    16:00 +10°C° 0,2 mm 4 m/S 739 mmHg 74%
    17:00 +8°C° 0,2 mm 4 m/S 740 mmHg 77%
    18:00 +8°C° 0,2 mm 4 m/S 740 mmHg 80%
    19:00 +7°C° 0,2 mm 4 m/S 740 mmHg 84%
    20:00 +7°C° 0,3 mm 4 m/S 740 mmHg 85%
    21:00 +7°C° 0,3 mm 4 m/S 740 mmHg 86%
    22:00 +7°C° 0,3 mm 5 m/S 740 mmHg 88%
    23:00 +7°C° 0,2 mm 5 m/S 740 mmHg 88%

    23 Oktober, Montag

    Zeit Temperatur Niederschläge Wind Luftdruck Luftfeuchtigkeit
    00:00 +7°C° 0,2 mm 5 m/S 740 mmHg 88%
    01:00 +7°C° 0,2 mm 5 m/S 740 mmHg 88%
    02:00 +7°C° 0,2 mm 5 m/S 741 mmHg 88%
    03:00 +6°C° 0,2 mm 5 m/S 741 mmHg 89%
    04:00 +6°C° 0,2 mm 5 m/S 741 mmHg 89%
    05:00 +7°C° 0,4 mm 5 m/S 741 mmHg 89%
    06:00 +7°C° 0,4 mm 5 m/S 741 mmHg 90%
    07:00 +7°C° 0,4 mm 5 m/S 742 mmHg 90%
    08:00 +7°C° 0,2 mm 5 m/S 742 mmHg 88%
    09:00 +8°C° 0,2 mm 5 m/S 743 mmHg 87%
    10:00 +8°C° 0,2 mm 5 m/S 743 mmHg 85%
    11:00 +9°C° 0 mm 5 m/S 743 mmHg 83%
    12:00 +9°C° 0 mm 5 m/S 743 mmHg 80%
    13:00 +11°C° 0 mm 4 m/S 743 mmHg 78%
    14:00 +11°C° 0,1 mm 4 m/S 743 mmHg 80%
    15:00 +10°C° 0,1 mm 4 m/S 744 mmHg 82%
    16:00 +10°C° 0,1 mm 4 m/S 744 mmHg 83%
    17:00 +10°C° 0,1 mm 4 m/S 744 mmHg 85%
    18:00 +10°C° 0,1 mm 4 m/S 744 mmHg 87%
    19:00 +10°C° 0,1 mm 4 m/S 744 mmHg 89%
    20:00 +10°C° 0,1 mm 4 m/S 745 mmHg 89%
    21:00 +10°C° 0,1 mm 4 m/S 745 mmHg 90%
    22:00 +10°C° 0,1 mm 4 m/S 745 mmHg 90%
    23:00 +9°C° 0,1 mm 3 m/S 745 mmHg 90%

    24 Oktober, Dienstag

    Zeit Temperatur Niederschläge Wind Luftdruck Luftfeuchtigkeit
    00:00 +9°C° 0,1 mm 3 m/S 745 mmHg 91%
    01:00 +9°C° 0,1 mm 3 m/S 745 mmHg 91%
    02:00 +9°C° 0 mm 3 m/S 745 mmHg 91%
    03:00 +8°C° 0 mm 3 m/S 745 mmHg 91%
    04:00 +8°C° 0 mm 2 m/S 745 mmHg 91%
    05:00 +8°C° 0 mm 2 m/S 745 mmHg 91%
    06:00 +8°C° 0 mm 2 m/S 745 mmHg 91%
    07:00 +8°C° 0 mm 2 m/S 745 mmHg 91%
    08:00 +9°C° 0 mm 2 m/S 746 mmHg 88%
    09:00 +9°C° 0 mm 2 m/S 746 mmHg 85%
    10:00 +10°C° 0 mm 2 m/S 746 mmHg 82%
    11:00 +12°C° 0 mm 2 m/S 746 mmHg 77%
    12:00 +14°C° 0 mm 2 m/S 746 mmHg 73%
    13:00 +15°C° 0 mm 2 m/S 746 mmHg 68%
    14:00 +15°C° 0 mm 1 m/S 745 mmHg 69%
    15:00 +15°C° 0 mm 1 m/S 745 mmHg 70%
    16:00 +15°C° 0 mm 1 m/S 745 mmHg 70%
    17:00 +14°C° 0 mm 1 m/S 745 mmHg 74%
    18:00 +12°C° 0 mm 1 m/S 745 mmHg 78%
    19:00 +10°C° 0 mm 0 m/S 745 mmHg 83%
    20:00 +11°C° 0 mm 1 m/S 746 mmHg 83%
    21:00 +11°C° 0 mm 1 m/S 746 mmHg 84%
    22:00 +10°C° 0 mm 1 m/S 746 mmHg 85%
    23:00 +10°C° 0 mm 1 m/S 746 mmHg 85%
    Mehr zeigen